Regional Weather Roundup
Issued by NWS

Home | Current Version | Previous Version | Graphics & Text | Print | Product List | Glossary On
Versions: 1 2 3 4 5 6 7 8 9 10 11 12 13 14 15 16 17 18 19 20 21 22 23 24 25 26 27 28 29 30 31 32 33 34 35 36 37 38 39 40 41 42 43 44 45 46 47 48 49 50
000
ASUS43 KOAX 250910
RWRNE

WEATHER ROUNDUP FOR NEBRASKA
NATIONAL WEATHER SERVICE OMAHA NE
300 AM CST SAT FEB 25 2017

NOTES: SATELLITE DATA IS BEING USED TO AUGMENT CLOUD COVER ABOVE
       12000 FEET.
       "FAIR" INDICATES FEW OR NO CLOUDS BELOW 12,000 FEET WITH NO
       SIGNIFICANT WEATHER AND/OR OBSTRUCTIONS TO VISIBILITY.

  * THESE STATIONS DO NOT REPORT WEATHER SUCH AS RAIN...SNOW OR FOG.

NEZ001>004-019>022-054>056-251000-
NEBRASKA PANHANDLE

CITY           SKY/WX    TMP DP  RH WIND       PRES   REMARKS
SCOTTSBLUFF    CLOUDY     3  -1  83 CALM      30.00F
ALLIANCE       FOG       -7 -10  87 W6        29.99F VSB 1/4 WCI -20
CHADRON        PTCLDY     3  -2  79 CALM      30.01F
KIMBALL        CLEAR      8   6  93 W10       29.96F WCI  -7
SIDNEY         CLEAR      4   0  83 W8        30.00F WCI  -9
$$

NEZ057>060-069>072-079>082-251000-
SOUTHWEST NEBRASKA

CITY           SKY/WX    TMP DP  RH WIND       PRES   REMARKS
NORTH PLATTE   CLOUDY     7   2  80 CALM      30.10F
IMPERIAL       CLEAR     11   7  84 SW3       30.09F
LEXINGTON      CLEAR     12   6  79 W7        30.13F WCI   1
MCCOOK         CLEAR     11   9  92 W6        30.14F WCI   1
OGALLALA       PTCLDY     4   1  86 CALM      30.07F
$$

NEZ005>010-023>029-035>040-094-251000-
NORTH CENTRAL NEBRASKA

CITY           SKY/WX    TMP DP  RH WIND       PRES   REMARKS
VALENTINE      CLOUDY     2  -1  88 W3        30.06F
AINSWORTH      CLOUDY     4   2  88 SW6       30.06F WCI  -6
BROKEN BOW     CLOUDY    14   8  77 NW8       30.09F WCI   3
O`NEILL        CLOUDY    10   7  85 W8        30.09F WCI  -2
ORD            CLOUDY     6   2  83 NW3       30.11S
THEDFORD       CLOUDY     5   3  88 CALM      30.07F
$$

NEZ041-046>049-061>064-073>077-083>087-251000-
SOUTH CENTRAL NEBRASKA

CITY           SKY/WX    TMP DP  RH WIND       PRES   REMARKS
GRAND ISLAND   CLOUDY    13   9  84 W10       30.13S WCI   0
AURORA         CLOUDY    14  10  84 NW8       30.11F WCI   3
HASTINGS       CLOUDY    14   9  80 W9        30.14S WCI   2
HEBRON         CLEAR     17  12  82 NW8       30.13F WCI   6
HOLDREGE       CLOUDY    14   9  81 W3        30.13F
KEARNEY *      CLOUDY    16   9  73 W7        30.14S WCI   6
YORK           CLEAR     14   9  79 NW10      30.11F WCI   1
$$

NEZ011>018-030>034-042>045-251000-
NORTHEAST NEBRASKA

CITY           SKY/WX    TMP DP  RH WIND       PRES   REMARKS
NORFOLK        CLOUDY    15   8  73 NW8       30.09S WCI   4
ALBION         CLOUDY    14   8  75 NW6       30.10S WCI   5
BLAIR          CLEAR     18  14  84 NW5       30.06S WCI  11
FREMONT        CLEAR     19  14  81 NW9       30.10S WCI   8
TEKAMAH        CLOUDY    19  12  74 N10       30.09F WCI   7
WAYNE          CLOUDY    16  12  85 NW12      30.08F WCI   2
$$

NEZ050>053-065>068-078-088>093-251000-
SOUTHEAST NEBRASKA

CITY           SKY/WX    TMP DP  RH WIND       PRES   REMARKS
LINCOLN        CLEAR     22  14  71 N9        30.12R WCI  12
OMAHA EPPLEY   CLEAR     19  12  74 NW15      30.09R WCI   5
BEATRICE       CLEAR     16  13  88 NW7       30.12S WCI   6
FALLS CITY     CLEAR     22  16  78 NW7       30.10R WCI  13
NEBRASKA CITY  CLEAR     22  13  70 N12       30.08F WCI  10
PLATTSMOUTH    CLEAR     21  13  71 NW15      30.08S WCI   8
$$

NEZ044-045-051>053-067-251000-
OMAHA AREA

CITY           SKY/WX    TMP DP  RH WIND       PRES   REMARKS
OMAHA EPPLEY   CLEAR     19  12  74 NW15      30.09R WCI   5
BLAIR          CLEAR     18  14  84 NW5       30.06S WCI  11
FREMONT        CLEAR     19  14  81 NW9       30.10S WCI   8
MILLARD        CLEAR     23  17  76 NW9       30.10S WCI  13
OFFUTT AFB     CLEAR     20  13  74 NW10      30.08F WCI   8
PLATTSMOUTH    CLEAR     21  13  71 NW15      30.08S WCI   8
WAHOO          FAIR      19  13  77 NW10      30.09S WCI   8
$$




USA.gov is the U.S. government's official web portal to all federal, state and local government web resources and services.